TimeEST,TemperatureF,Dew PointF,Humidity,Sea Level PressureIn,VisibilityMPH,Wind Direction,Wind SpeedMPH,Gust SpeedMPH,PrecipitationIn,Events,Conditions,WindDirDegrees,DateUTC
12:15 AM,46.4,44.6,93,30.21,10.0,Calm,Calm,-,N/A,,Clear,0,2013-11-09 05:15:00
12:35 AM,46.4,44.6,93,30.21,10.0,Calm,Calm,-,N/A,,Clear,0,2013-11-09 05:35:00
12:55 AM,48.2,46.4,93,30.21,10.0,Calm,Calm,-,N/A,,Clear,0,2013-11-09 05:55:00
1:15 AM,48.2,46.4,93,30.21,10.0,Calm,Calm,-,N/A,,Clear,0,2013-11-09 06:15:00
1:35 AM,48.2,46.4,93,30.21,10.0,Calm,Calm,-,N/A,,Clear,0,2013-11-09 06:35:00
1:55 AM,48.2,46.4,93,30.20,10.0,Calm,Calm,-,N/A,,Clear,0,2013-11-09 06:55:00
2:15 AM,46.4,46.4,100,30.20,10.0,Calm,Calm,-,N/A,,Clear,0,2013-11-09 07:15:00
2:35 AM,48.2,46.4,93,30.20,10.0,Calm,Calm,-,N/A,,Clear,0,2013-11-09 07:35:00
2:55 AM,46.4,46.4,100,30.19,10.0,Calm,Calm,-,N/A,,Clear,0,2013-11-09 07:55:00
3:15 AM,48.2,46.4,93,30.20,10.0,Calm,Calm,-,N/A,,Clear,0,2013-11-09 08:15:00
3:35 AM,48.2,46.4,93,30.20,10.0,Calm,Calm,-,N/A,,Clear,0,2013-11-09 08:35:00
3:55 AM,48.2,46.4,93,30.19,10.0,Calm,Calm,-,N/A,,Clear,0,2013-11-09 08:55:00
4:15 AM,48.2,46.4,93,30.19,10.0,Calm,Calm,-,N/A,,Clear,0,2013-11-09 09:15:00
4:35 AM,48.2,46.4,93,30.19,10.0,Calm,Calm,-,N/A,,Clear,0,2013-11-09 09:35:00
4:55 AM,48.2,46.4,93,30.19,10.0,NNW,3.5,-,N/A,,Clear,330,2013-11-09 09:55:00
5:15 AM,48.2,46.4,93,30.20,10.0,Calm,Calm,-,N/A,,Clear,0,2013-11-09 10:15:00
5:35 AM,48.2,46.4,93,30.21,10.0,Calm,Calm,-,N/A,,Clear,0,2013-11-09 10:35:00
6:50 AM,48.2,46.4,93,30.23,10.0,Calm,Calm,-,N/A,,Clear,0,2013-11-09 11:50:00
7:50 AM,50.0,48.2,94,30.24,10.0,NNE,4.6,-,N/A,,Clear,20,2013-11-09 12:50:00
8:50 AM,59.0,53.6,82,30.25,10.0,NNE,9.2,-,N/A,,Clear,30,2013-11-09 13:50:00
9:50 AM,66.2,57.2,73,30.26,10.0,Variable,5.8,-,N/A,,Clear,0,2013-11-09 14:50:00
10:50 AM,71.6,57.2,60,30.26,10.0,ENE,6.9,-,N/A,,Clear,60,2013-11-09 15:50:00
11:50 AM,73.4,57.2,57,30.23,10.0,ENE,11.5,-,N/A,,Mostly Cloudy,70,2013-11-09 16:50:00
12:50 PM,73.4,55.4,53,30.22,10.0,East,15.0,-,N/A,,Mostly Cloudy,90,2013-11-09 17:50:00
1:50 PM,73.4,59.0,61,30.19,10.0,ENE,8.1,-,N/A,,Mostly Cloudy,70,2013-11-09 18:50:00
2:50 PM,73.4,59.0,61,30.19,10.0,ENE,15.0,-,N/A,,Scattered Clouds,60,2013-11-09 19:50:00
3:50 PM,71.6,59.0,64,30.19,10.0,East,11.5,-,N/A,,Scattered Clouds,80,2013-11-09 20:50:00
4:50 PM,69.8,59.0,68,30.20,10.0,ENE,11.5,-,N/A,,Partly Cloudy,60,2013-11-09 21:50:00
5:50 PM,66.2,59.0,78,30.21,10.0,NE,6.9,-,N/A,,Partly Cloudy,50,2013-11-09 22:50:00
6:50 PM,62.6,59.0,88,30.22,10.0,NNE,5.8,-,N/A,,Clear,30,2013-11-09 23:50:00
7:15 PM,62.6,59.0,88,30.23,10.0,NNE,5.8,-,N/A,,Clear,20,2013-11-10 00:15:00
7:35 PM,62.6,59.0,88,30.23,10.0,NNE,6.9,-,N/A,,Clear,20,2013-11-10 00:35:00
7:50 PM,62.6,59.0,88,30.23,10.0,NNE,11.5,-,N/A,,Clear,30,2013-11-10 00:50:00
7:55 PM,60.8,59.0,94,30.23,10.0,NNE,8.1,-,N/A,,Clear,30,2013-11-10 00:55:00
8:15 PM,60.8,59.0,94,30.24,10.0,NNE,5.8,-,N/A,,Clear,30,2013-11-10 01:15:00
8:35 PM,60.8,59.0,94,30.23,10.0,NE,4.6,-,N/A,,Clear,40,2013-11-10 01:35:00
9:35 PM,59.0,59.0,100,30.23,10.0,NNE,4.6,-,N/A,,Clear,30,2013-11-10 02:35:00
9:55 PM,59.0,59.0,100,30.22,9.0,NE,5.8,-,N/A,,Clear,40,2013-11-10 02:55:00
10:15 PM,59.0,59.0,100,30.21,8.0,NE,4.6,-,N/A,,Clear,40,2013-11-10 03:15:00
10:35 PM,59.0,59.0,100,30.21,8.0,NNE,5.8,-,N/A,,Clear,30,2013-11-10 03:35:00
10:55 PM,59.0,59.0,100,30.21,7.0,NNE,4.6,-,N/A,,Clear,30,2013-11-10 03:55:00
11:15 PM,59.0,57.2,94,30.21,6.0,Calm,Calm,-,N/A,,Clear,0,2013-11-10 04:15:00
11:35 PM,59.0,59.0,100,30.20,5.0,Calm,Calm,-,N/A,,Clear,0,2013-11-10 04:35:00
11:55 PM,59.0,57.2,94,30.19,4.0,Calm,Calm,-,N/A,,Clear,0,2013-11-10 04:55:00